Regional Weather Roundup
Issued by NWS

Home | Current Version | Previous Version | Graphics & Text | Print | Product List | Glossary On
Versions: 1 2 3 4 5 6 7 8 9 10 11 12 13 14 15 16 17 18 19 20 21 22 23 24 25 26 27 28 29 30 31 32 33 34 35 36 37 38 39 40 41 42 43 44 45 46 47 48 49 50
162
ASUS45 KBOU 231110
RWRCO

WEATHER ROUNDUP FOR COLORADO
NATIONAL WEATHER SERVICE DENVER/BOULDER CO
400 AM MST TUE JAN 23 2018

NOTE: "FAIR" INDICATES FEW OR NO CLOUDS BELOW 12000 FEET WITH NO
SIGNIFICANT WEATHER AND/OR OBSTRUCTIONS TO VISIBILITY.

COZ001>005-013-030-031-231200-
...NORTHWEST COLORADO...

CITY           SKY/WX    TMP DP  RH WIND       PRES   REMARKS
CRAIG          FAIR       9   6  88 S3        30.26F
HAYDEN         CLOUDY    14  10  84 E7        30.26F WCI   4
MEEKER         MOCLDY    15  12  88 CALM      30.27S
RABBIT EARS PA LGT SNOW N/A N/A N/A W13G22    30.08S VSB 3/4
STEAMBOAT SPGS CLOUDY    11   9  91 CALM      30.24S
WALDEN         CLOUDY    18  10  73 SW12      30.15S WCI   5
$$

COZ006>008-011-231200-
...WEST CENTRAL VALLEYS...

CITY           SKY/WX    TMP DP  RH WIND       PRES   REMARKS
GRAND JUNCTION FAIR      15  13  91 E5        30.33R WCI   8
MONTROSE       FAIR      18  11  74 E5        30.33S WCI  11
EAGLE          CLOUDY    17  12  80 E6        30.29S WCI   9
RIFLE          CLOUDY    24  20  84 CALM      30.31S
DELTA          MOCLDY    21  14  73 N6        30.33F WCI  14
NUCLA          FAIR      16   9  73 E8        30.34S WCI   5
$$

COZ017>023-064>068-231200-
...SOUTHWEST COLORADO...

CITY           SKY/WX    TMP DP  RH WIND       PRES   REMARKS
DURANGO        FAIR       3   2  95 CALM      30.23S
CORTEZ         FAIR       6   3  87 NE7       30.27F WCI  -6
PAGOSA SPRINGS FAIR       5   3  91 CALM      30.21F
TELLURIDE      FAIR      10   4  78 E6        30.24S WCI   0
WOLF CREEK PAS FAIR      10  -6  48 W5        30.18S WCI   2
$$

COZ009-010-012-014-032>034-037-058>063-231200-
...CENTRAL COLORADO...

CITY           SKY/WX    TMP DP  RH WIND       PRES   REMARKS
ASPEN          CLOUDY    15  12  88 CALM      30.22S
BUENA VISTA    FAIR      19   5  55 N9        30.15S WCI   8
COPPER MTN     NOT AVBL
BERTHOUD PASS  SNOW       1  -9  60 NW40G49   29.96F VSB 1/2 WCI -27
COTTONWOOD PAS FAIR      23   7  50 CALM      30.10S
GUNNISON       FAIR      -2  -6  83 CALM      30.29R
KREMMLING      CLOUDY    14   9  79 CALM      30.24S
LEADVILLE      CLOUDY     5   1  83 NE3       30.13S
MONARCH PASS   FAIR       3   0  85 W33       30.17R FOG     WCI -23
SALIDA         FAIR      13   3  66 N3        30.25R
SUNLIGHT       LGT SNOW  10   5  79 W3        30.20S
WILKERSON PASS   N/A      9   0  66 N8G22     30.09R WCI  -4
$$

COZ069>075-231200-
...SAN LUIS VALLEY/SANGRE DE CRISTO MOUNTAINS...

CITY           SKY/WX    TMP DP  RH WIND       PRES   REMARKS
ALAMOSA        FAIR      -7 -12  79 SE5       30.22R WCI -18
DEL NORTE      FAIR      11  -4  51 W17       30.20S WCI  -7
LA VETA PASS   FAIR      12   1  62 SW25G33     N/A  WCI  -8
SAGUACHE       FAIR       9   0  66 NW10      30.21S WCI  -6
$$

COZ035-036-038>040-231200-
...NORTHERN COLORADO FRONT RANGE...

CITY           SKY/WX    TMP DP  RH WIND       PRES   REMARKS
DENVER INTL AP MOCLDY    25  10  53 SW5       30.13R WCI  19
DMNS CITY PARK NOT AVBL
AURORA         MOCLDY    24  11  57 CALM      30.13R
FRONT RANGE AP FAIR      30  11  46 SW6       30.14R WCI  24
ERIE MUNI ARPT FAIR      19  11  71 CALM      30.19S
BOULDER MUN AP FAIR      34   9  35 W17G26    30.12F WCI  23
CENTENNIAL     FAIR      28   9  44 W7        30.13R WCI  21
BROOMFIELD     FAIR      32  10  40 W12G17    30.13S WCI  23
FORT COLLINS   FAIR      24  14  65 SW5       30.14S WCI  18
LONGMONT       FAIR      18  10  69 W5        30.16S WCI  11
$$

COZ041-046-047-076>085-087-088-231200-
...PIKES PEAK/PALMER DIVIDE AND SOUTHERN FOOTHILLS...

CITY           SKY/WX    TMP DP  RH WIND       PRES   REMARKS
COLO. SPRINGS  FAIR      14   6  70 NE9       30.14S WCI   2
A. F. ACADEMY  FAIR      11   2  65 NE5       30.12S WCI   3
SCHRIEVER AFB  FAIR      19   6  56 CALM      30.14S
CHEYENNE MTN   FAIR      25   4  40 NW3       30.06S
ELLICOTT         N/A    N/A N/A N/A N6        30.12S
FALCON         FAIR      14   3  61 NW3       30.13S
FORT CARSON    FAIR      21   7  54 NW6       30.13R WCI  14
LIMON          FAIR       7   3  84 CALM      30.14S
MONUMENT HILL  FAIR      14   1  57 W7        30.13R WCI   4
CANON CITY     FAIR      27   9  46 W13       30.15R WCI  16
WALSENBURG     NOT AVBL
TRINIDAD       FAIR      16   3  56 W10       30.13S WCI   4
$$

COZ042>045-048>051-090-091-231200-
...NORTHEAST COLORADO...

CITY           SKY/WX    TMP DP  RH WIND       PRES   REMARKS
GREELEY ARPT   FAIR      14  10  84 CALM      30.15S
AKRON          FAIR      25  16  68 NW18      30.12S WCI  11
BURLINGTON     FAIR      13   6  74 W10       30.14S WCI   0
WRAY           CLOUDY    19  14  79 W8        30.14S WCI   9
YUMA           FAIR      23  16  74 W13       30.13S WCI  11
STERLING       CLOUDY    32  23  69 NW14      30.12S WCI  22
HOLYOKE        FAIR      30  21  69 W14       30.12S WCI  20
FORT MORGAN    FAIR      28  14  57 NW9       30.14S WCI  19
$$

COZ086-089-092>099-231200-
...SOUTHEAST COLORADO...

CITY           SKY/WX    TMP DP  RH WIND       PRES   REMARKS
PUEBLO         FAIR      21   9  59 N7        30.16R WCI  12
LA JUNTA       FAIR      23  10  57 SW10      30.16R WCI  12
LAMAR          FAIR       6   2  83 SW7       30.17R WCI  -6
SPRINGFIELD      N/A      9   5  84 W9        30.15S WCI  -4
$$




USA.gov is the U.S. government's official web portal to all federal, state and local government web resources and services.